Location: Bj�rn�ya
(74.5000°N, 19.0000°E)
Time: 07:20:54
(UTC+02:00)

Envisat - Pass Details

Date: 01 February 2022
Orbit: 764 x 765 km, 98.2° (Epoch: 20 May)

Event Time Altitude Azimuth Distance (km) Brightness Sun altitude
Rises 04:45:32 0° 21° (NNE) 3,247 6.7 -21.3°
Reaches altitude 10° 04:47:56 10° 27° (NNE) 2,318 6.0 -21.1°
Maximum altitude 04:52:52 47° 102° (ESE) 1,013 4.0 -20.8°
Drops below altitude 10° 04:57:48 10° 176° (S) 2,310 5.4 -20.5°
Sets 05:00:11 0° 182° (S) 3,234 6.1 -20.3°
